Location: Ammerl�gen
(47.2167°N, 9.6000°E)
Time: 10:32:44
(UTC+00:00)

BREEZE-M (TANK) - Pass Details

Date: 21 April 2021
Orbit: 276 x 17567 km, 49.6° (Epoch: 06 May)

Event Time Altitude Azimuth Distance (km) Brightness Sun altitude
Rises 19:26:28 0° 294° (WNW) 13,425 11.6 -11.1°
Reaches altitude 10° 19:41:31 10° 294° (WNW) 9,086 10.1 -13.3°
Maximum altitude 20:02:25 62° 221° (SW) 1,543 4.7 -16.1°
Enters shadow 20:05:40 24° 148° (SSE) 1,746 4.5 -16.5°
